Year,Month,Day,Hour,Minute,Value (Times are PST for windspeed in km/hr)
2012,01,25,00,00,34.30
2012,01,25,00,01,32.30
2012,01,25,00,02,36.00
2012,01,25,00,03,40.90
2012,01,25,00,04,38.50
2012,01,25,00,05,36.70
2012,01,25,00,06,28.90
2012,01,25,00,07,29.20
2012,01,25,00,08,31.00
2012,01,25,00,09,32.60
2012,01,25,00,10,39.50
2012,01,25,00,11,38.40
2012,01,25,00,12,31.10
2012,01,25,00,13,35.70
2012,01,25,00,14,33.20
2012,01,25,00,15,33.20
2012,01,25,00,16,32.00
2012,01,25,00,17,33.80
2012,01,25,00,18,26.10
2012,01,25,00,19,21.60
2012,01,25,00,20,31.70
2012,01,25,00,21,24.80
2012,01,25,00,22,24.20
2012,01,25,00,23,23.00
2012,01,25,00,24,28.40
2012,01,25,00,25,26.10
2012,01,25,00,26,30.10
2012,01,25,00,27,38.40
2012,01,25,00,28,36.50
2012,01,25,00,29,32.70
2012,01,25,00,30,38.90
2012,01,25,00,31,38.40
2012,01,25,00,32,41.30
2012,01,25,00,33,36.40
2012,01,25,00,34,28.20
2012,01,25,00,35,41.30
2012,01,25,00,36,28.80
2012,01,25,00,37,19.60
2012,01,25,00,38,24.90
2012,01,25,00,39,29.30
2012,01,25,00,40,31.10
2012,01,25,00,41,22.90
2012,01,25,00,42,27.30
2012,01,25,00,43,28.10
2012,01,25,00,44,28.60
2012,01,25,00,45,27.20
2012,01,25,00,46,37.40
2012,01,25,00,47,30.80
2012,01,25,00,48,25.60
2012,01,25,00,49,29.00
2012,01,25,00,50,24.20
2012,01,25,00,51,26.20
2012,01,25,00,52,36.30
2012,01,25,00,53,24.80
2012,01,25,00,54,27.90
2012,01,25,00,55,32.40
2012,01,25,00,56,32.70
2012,01,25,00,57,27.00
2012,01,25,00,58,28.30
2012,01,25,00,59,24.30
2012,01,25,01,00,24.50
2012,01,25,01,01,25.90
2012,01,25,01,02,23.80
2012,01,25,01,03,22.50
2012,01,25,01,04,22.00
2012,01,25,01,05,25.20
2012,01,25,01,06,35.60
2012,01,25,01,07,35.60
2012,01,25,01,08,18.70
2012,01,25,01,09,21.50
2012,01,25,01,10,27.20
2012,01,25,01,11,29.50
2012,01,25,01,12,30.30
2012,01,25,01,13,21.90
2012,01,25,01,14,31.30
2012,01,25,01,15,37.70
2012,01,25,01,16,32.70
2012,01,25,01,17,25.80
2012,01,25,01,18,25.30
2012,01,25,01,19,25.70
2012,01,25,01,20,32.90
2012,01,25,01,21,24.10
2012,01,25,01,22,34.00
2012,01,25,01,23,33.60
2012,01,25,01,24,31.70
2012,01,25,01,25,34.70
2012,01,25,01,26,30.20
2012,01,25,01,27,22.00
2012,01,25,01,28,28.50
2012,01,25,01,29,29.60
2012,01,25,01,30,21.60
2012,01,25,01,31,25.40
2012,01,25,01,32,22.90
2012,01,25,01,33,23.10
2012,01,25,01,34,41.70
2012,01,25,01,35,46.00
2012,01,25,01,36,31.30
2012,01,25,01,37,34.00
2012,01,25,01,38,28.00
2012,01,25,01,39,22.40
2012,01,25,01,40,24.70
2012,01,25,01,41,26.00
2012,01,25,01,42,22.40
2012,01,25,01,43,22.90
2012,01,25,01,44,25.00
2012,01,25,01,45,21.80
2012,01,25,01,46,18.70
2012,01,25,01,47,23.20
2012,01,25,01,48,26.90
2012,01,25,01,49,22.10
2012,01,25,01,50,26.90
2012,01,25,01,51,25.60
2012,01,25,01,52,29.00
2012,01,25,01,53,25.30
2012,01,25,01,54,27.60
2012,01,25,01,55,21.90
2012,01,25,01,56,17.50
2012,01,25,01,57,35.60
2012,01,25,01,58,31.60
2012,01,25,01,59,24.50
2012,01,25,02,00,25.70
2012,01,25,02,01,30.80
2012,01,25,02,02,32.70
2012,01,25,02,03,29.80
2012,01,25,02,04,21.90
2012,01,25,02,05,22.80
2012,01,25,02,06,25.20
2012,01,25,02,07,23.00
2012,01,25,02,08,31.80
2012,01,25,02,09,19.20
2012,01,25,02,10,24.00
2012,01,25,02,11,20.20
2012,01,25,02,12,21.20
2012,01,25,02,13,21.90
2012,01,25,02,14,20.30
2012,01,25,02,15,16.70
2012,01,25,02,16,21.90
2012,01,25,02,17,21.00
2012,01,25,02,18,16.10
2012,01,25,02,19,17.60
2012,01,25,02,20,19.60
2012,01,25,02,21,18.10
2012,01,25,02,22,15.50
2012,01,25,02,23,21.00
2012,01,25,02,24,27.00
2012,01,25,02,25,17.90
2012,01,25,02,26,17.00
2012,01,25,02,27,12.50
2012,01,25,02,28,21.70
2012,01,25,02,29,25.00
2012,01,25,02,30,21.80
2012,01,25,02,31,24.50
2012,01,25,02,32,27.00
2012,01,25,02,33,23.20
2012,01,25,02,34,31.80
2012,01,25,02,35,27.10
2012,01,25,02,36,27.10
2012,01,25,02,37,26.00
2012,01,25,02,38,24.00
2012,01,25,02,39,26.10
2012,01,25,02,40,18.30
2012,01,25,02,41,20.50
2012,01,25,02,42,23.10
2012,01,25,02,43,19.10
2012,01,25,02,44,19.10
2012,01,25,02,45,17.10
2012,01,25,02,46,15.20
2012,01,25,02,47,15.60
2012,01,25,02,48,22.00
2012,01,25,02,49,21.50
2012,01,25,02,50,16.30
2012,01,25,02,51,15.90
2012,01,25,02,52,16.30
2012,01,25,02,53,16.00
2012,01,25,02,54,16.30
2012,01,25,02,55,15.40
2012,01,25,02,56,15.30
2012,01,25,02,57,17.50
2012,01,25,02,58,25.20
2012,01,25,02,59,14.40
2012,01,25,03,00,9.30
2012,01,25,03,01,9.60
2012,01,25,03,02,14.00
2012,01,25,03,03,13.90
2012,01,25,03,04,17.70
2012,01,25,03,05,12.60
2012,01,25,03,06,7.70
2012,01,25,03,07,13.80
2012,01,25,03,08,9.10
2012,01,25,03,09,9.30
2012,01,25,03,10,8.40
2012,01,25,03,11,10.60
2012,01,25,03,12,10.20
2012,01,25,03,13,6.20
2012,01,25,03,14,3.40
2012,01,25,03,15,10.70
2012,01,25,03,16,15.30
2012,01,25,03,17,11.80
2012,01,25,03,18,5.20
2012,01,25,03,19,3.50
2012,01,25,03,20,12.70
2012,01,25,03,21,9.20
2012,01,25,03,22,4.90
2012,01,25,03,23,6.70
2012,01,25,03,24,4.20
2012,01,25,03,25,4.00
2012,01,25,03,26,0.80
2012,01,25,03,27,3.60
2012,01,25,03,28,7.50
2012,01,25,03,29,9.80
2012,01,25,03,30,7.40
2012,01,25,03,31,1.10
2012,01,25,03,32,3.30
2012,01,25,03,33,3.10
2012,01,25,03,34,1.30
2012,01,25,03,35,0.00
2012,01,25,03,36,0.00
2012,01,25,03,37,0.00
2012,01,25,03,38,0.00
2012,01,25,03,39,0.00
2012,01,25,03,40,0.00
2012,01,25,03,41,1.30
2012,01,25,03,42,3.50
2012,01,25,03,43,4.90
2012,01,25,03,44,0.20
2012,01,25,03,45,0.00
2012,01,25,03,46,0.00
2012,01,25,03,47,0.00
2012,01,25,03,48,0.00
2012,01,25,03,49,0.00
2012,01,25,03,50,0.00
2012,01,25,03,51,0.00
2012,01,25,03,52,0.90
2012,01,25,03,53,1.40
2012,01,25,03,54,4.80
2012,01,25,03,55,1.10
2012,01,25,03,56,0.40
2012,01,25,03,57,1.20
2012,01,25,03,58,0.00
2012,01,25,03,59,0.00
2012,01,25,04,00,0.00
2012,01,25,04,01,0.00
2012,01,25,04,02,0.50
2012,01,25,04,03,4.10
2012,01,25,04,04,0.00
2012,01,25,04,05,3.00
2012,01,25,04,06,3.80
2012,01,25,04,07,2.70
2012,01,25,04,08,3.60
2012,01,25,04,09,4.10
2012,01,25,04,10,2.40
2012,01,25,04,11,0.30
2012,01,25,04,12,0.40
2012,01,25,04,13,1.90
2012,01,25,04,14,2.80
2012,01,25,04,15,3.50
2012,01,25,04,16,1.00
2012,01,25,04,17,3.40
2012,01,25,04,18,6.00
2012,01,25,04,19,4.70
2012,01,25,04,20,4.90
2012,01,25,04,21,4.00
2012,01,25,04,22,1.50
2012,01,25,04,23,2.20
2012,01,25,04,24,1.80
2012,01,25,04,25,0.90
2012,01,25,04,26,2.80
2012,01,25,04,27,2.50
2012,01,25,04,28,0.30
2012,01,25,04,29,3.30
2012,01,25,04,30,0.40
2012,01,25,04,31,2.70
2012,01,25,04,32,5.30
2012,01,25,04,33,3.40
2012,01,25,04,34,5.40
2012,01,25,04,35,10.20
2012,01,25,04,36,5.90
2012,01,25,04,37,1.90
2012,01,25,04,38,1.70
2012,01,25,04,39,0.80
2012,01,25,04,40,0.00
2012,01,25,04,41,0.00
2012,01,25,04,42,0.00
2012,01,25,04,43,0.30
2012,01,25,04,44,0.00
2012,01,25,04,45,0.50
2012,01,25,04,46,1.30
2012,01,25,04,47,1.40
2012,01,25,04,48,0.30
2012,01,25,04,49,1.20
2012,01,25,04,50,1.40
2012,01,25,04,51,1.20
2012,01,25,04,52,1.00
2012,01,25,04,53,0.00
2012,01,25,04,54,0.60
2012,01,25,04,55,0.00
2012,01,25,04,56,0.00
2012,01,25,04,57,0.00
2012,01,25,04,58,0.00
2012,01,25,04,59,0.00
2012,01,25,05,00,0.00
2012,01,25,05,01,0.10
2012,01,25,05,02,0.00
2012,01,25,05,03,0.20
2012,01,25,05,04,1.20
2012,01,25,05,05,3.90
2012,01,25,05,06,2.30
2012,01,25,05,07,1.40
2012,01,25,05,08,1.10
2012,01,25,05,09,2.60
2012,01,25,05,10,3.30
2012,01,25,05,11,1.00
2012,01,25,05,12,2.20
2012,01,25,05,13,0.50
2012,01,25,05,14,1.20
2012,01,25,05,15,0.20
2012,01,25,05,16,0.00
2012,01,25,05,17,0.80
2012,01,25,05,18,1.00
2012,01,25,05,19,3.30
2012,01,25,05,20,6.50
2012,01,25,05,21,5.90
2012,01,25,05,22,2.30
2012,01,25,05,23,1.90
2012,01,25,05,24,1.80
2012,01,25,05,25,2.80
2012,01,25,05,26,5.30
2012,01,25,05,27,4.80
2012,01,25,05,28,4.50
2012,01,25,05,29,3.00
2012,01,25,05,30,11.30
2012,01,25,05,31,11.60
2012,01,25,05,32,10.30
2012,01,25,05,33,9.10
2012,01,25,05,34,9.30
2012,01,25,05,35,6.80
2012,01,25,05,36,6.40
2012,01,25,05,37,8.20
2012,01,25,05,38,4.40
2012,01,25,05,39,5.20
2012,01,25,05,40,2.80
2012,01,25,05,41,2.70
2012,01,25,05,42,3.70
2012,01,25,05,43,3.40
2012,01,25,05,44,0.80
2012,01,25,05,45,5.30
2012,01,25,05,46,2.60
2012,01,25,05,47,1.60
2012,01,25,05,48,1.50
2012,01,25,05,49,3.40
2012,01,25,05,50,1.20
2012,01,25,05,51,2.20
2012,01,25,05,52,2.10
2012,01,25,05,53,0.50
2012,01,25,05,54,0.40
2012,01,25,05,55,0.80
2012,01,25,05,56,0.10
2012,01,25,05,57,0.20
2012,01,25,05,58,0.00
2012,01,25,05,59,0.00
2012,01,25,06,00,1.70
2012,01,25,06,01,1.00
2012,01,25,06,02,0.00
2012,01,25,06,03,3.70
2012,01,25,06,04,0.30
2012,01,25,06,05,0.00
2012,01,25,06,06,0.20
2012,01,25,06,07,1.00
2012,01,25,06,08,1.00
2012,01,25,06,09,0.60
2012,01,25,06,10,0.00
2012,01,25,06,11,0.40
2012,01,25,06,12,0.20
2012,01,25,06,13,0.20
2012,01,25,06,14,0.00
2012,01,25,06,15,0.70
2012,01,25,06,16,0.30
2012,01,25,06,17,0.00
2012,01,25,06,18,0.00
2012,01,25,06,19,0.00
2012,01,25,06,20,0.00
2012,01,25,06,21,0.00
2012,01,25,06,22,0.00
2012,01,25,06,23,0.00
2012,01,25,06,24,0.00
2012,01,25,06,25,0.00
2012,01,25,06,26,0.00
2012,01,25,06,27,0.00
2012,01,25,06,28,0.00
2012,01,25,06,29,0.00
2012,01,25,06,30,0.00
2012,01,25,06,31,0.00
2012,01,25,06,32,0.00
2012,01,25,06,33,0.00
2012,01,25,06,34,0.00
2012,01,25,06,35,0.00
2012,01,25,06,36,0.00
2012,01,25,06,37,0.00
2012,01,25,06,38,0.00
2012,01,25,06,39,0.00
2012,01,25,06,40,0.00
2012,01,25,06,41,0.00
2012,01,25,06,42,0.00
2012,01,25,06,43,1.40
2012,01,25,06,44,2.10
2012,01,25,06,45,2.00
2012,01,25,06,46,3.10
2012,01,25,06,47,2.50
2012,01,25,06,48,3.00
2012,01,25,06,49,3.00
2012,01,25,06,50,4.10
2012,01,25,06,51,4.30
2012,01,25,06,52,3.20
2012,01,25,06,53,0.00
2012,01,25,06,54,0.90
2012,01,25,06,55,0.10
2012,01,25,06,56,0.50
2012,01,25,06,57,1.60
2012,01,25,06,58,0.40
2012,01,25,06,59,0.70
2012,01,25,07,00,2.40
2012,01,25,07,01,0.70
2012,01,25,07,02,0.00
2012,01,25,07,03,0.00
2012,01,25,07,04,0.00
2012,01,25,07,05,0.00
2012,01,25,07,06,0.00
2012,01,25,07,07,0.00
2012,01,25,07,08,0.00
2012,01,25,07,09,0.00
2012,01,25,07,10,0.00
2012,01,25,07,11,0.00
2012,01,25,07,12,0.00
2012,01,25,07,13,0.00
2012,01,25,07,14,0.00
2012,01,25,07,15,0.00
2012,01,25,07,16,0.30
2012,01,25,07,17,0.70
2012,01,25,07,18,0.00
2012,01,25,07,19,0.00
2012,01,25,07,20,0.00
2012,01,25,07,21,0.00
2012,01,25,07,22,0.20
2012,01,25,07,23,0.50
2012,01,25,07,24,0.10
2012,01,25,07,25,1.70
2012,01,25,07,26,0.10
2012,01,25,07,27,0.00
2012,01,25,07,28,0.80
2012,01,25,07,29,0.80
2012,01,25,07,30,0.00
2012,01,25,07,31,0.40
2012,01,25,07,32,3.00
2012,01,25,07,33,1.00
2012,01,25,07,34,13.80
2012,01,25,07,35,14.90
2012,01,25,07,36,8.80
2012,01,25,07,37,12.10
2012,01,25,07,38,18.50
2012,01,25,07,39,13.90
2012,01,25,07,40,10.30
2012,01,25,07,41,9.60
2012,01,25,07,42,5.60
2012,01,25,07,43,7.90
2012,01,25,07,44,6.40
2012,01,25,07,45,8.10
2012,01,25,07,46,5.50
2012,01,25,07,47,2.40
2012,01,25,07,48,5.60
2012,01,25,07,49,5.10
2012,01,25,07,50,3.10
2012,01,25,07,51,1.60
2012,01,25,07,52,6.90
2012,01,25,07,53,4.40
2012,01,25,07,54,8.20
2012,01,25,07,55,17.30
2012,01,25,07,56,9.70
2012,01,25,07,57,9.30
2012,01,25,07,58,16.30
2012,01,25,07,59,14.10
2012,01,25,08,00,10.20
2012,01,25,08,01,6.70
2012,01,25,08,02,13.80
2012,01,25,08,03,18.80
2012,01,25,08,04,22.70
2012,01,25,08,05,22.00
2012,01,25,08,06,13.90
2012,01,25,08,07,18.20
2012,01,25,08,08,13.90
2012,01,25,08,09,22.50
2012,01,25,08,10,16.00
2012,01,25,08,11,10.90
2012,01,25,08,12,12.40
2012,01,25,08,13,14.20
2012,01,25,08,14,15.80
2012,01,25,08,15,15.10
2012,01,25,08,16,13.60
2012,01,25,08,17,10.80
2012,01,25,08,18,10.20
2012,01,25,08,19,5.90
2012,01,25,08,20,7.50
2012,01,25,08,21,7.40
2012,01,25,08,22,6.20
2012,01,25,08,23,5.90
2012,01,25,08,24,1.30
2012,01,25,08,25,2.40
2012,01,25,08,26,2.20
2012,01,25,08,27,5.10
2012,01,25,08,28,5.30
2012,01,25,08,29,3.50
2012,01,25,08,30,0.80
2012,01,25,08,31,0.70
2012,01,25,08,32,0.30
2012,01,25,08,33,1.10
2012,01,25,08,34,1.60
2012,01,25,08,35,1.60
2012,01,25,08,36,1.60
2012,01,25,08,37,1.60
2012,01,25,08,38,1.90
2012,01,25,08,39,2.60
2012,01,25,08,40,4.30
2012,01,25,08,41,3.70
2012,01,25,08,42,3.00
2012,01,25,08,43,5.90
2012,01,25,08,44,9.30
2012,01,25,08,45,7.70
2012,01,25,08,46,9.40
2012,01,25,08,47,6.60
2012,01,25,08,48,12.30
2012,01,25,08,49,6.60
2012,01,25,08,50,5.40
2012,01,25,08,51,4.90
2012,01,25,08,52,4.80
2012,01,25,08,53,6.50
2012,01,25,08,54,10.30
2012,01,25,08,55,7.20
2012,01,25,08,56,5.40
2012,01,25,08,57,6.40
2012,01,25,08,58,4.30
2012,01,25,08,59,4.60
2012,01,25,09,00,3.30
2012,01,25,09,01,4.40
2012,01,25,09,02,2.90
2012,01,25,09,03,3.50
2012,01,25,09,04,4.20
2012,01,25,09,05,3.80
2012,01,25,09,06,2.50
2012,01,25,09,07,4.80
2012,01,25,09,08,3.00
2012,01,25,09,09,2.20
2012,01,25,09,10,1.80
2012,01,25,09,11,0.40
2012,01,25,09,12,0.10
2012,01,25,09,13,0.60
2012,01,25,09,14,0.10
2012,01,25,09,15,0.70
2012,01,25,09,16,0.70
2012,01,25,09,17,1.50
2012,01,25,09,18,3.40
2012,01,25,09,19,4.20
2012,01,25,09,20,4.20
2012,01,25,09,21,3.30
2012,01,25,09,22,3.50
2012,01,25,09,23,2.60
2012,01,25,09,24,2.70
2012,01,25,09,25,2.60
2012,01,25,09,26,1.80
2012,01,25,09,27,4.00
2012,01,25,09,28,5.50
2012,01,25,09,29,7.10
2012,01,25,09,30,3.30
2012,01,25,09,31,5.10
2012,01,25,09,32,4.30
2012,01,25,09,33,1.80
2012,01,25,09,34,2.40
2012,01,25,09,35,6.40
2012,01,25,09,36,3.70
2012,01,25,09,37,5.70
2012,01,25,09,38,7.00
2012,01,25,09,39,6.10
2012,01,25,09,40,6.40
2012,01,25,09,41,7.80
2012,01,25,09,42,13.90
2012,01,25,09,43,13.80
2012,01,25,09,44,10.70
2012,01,25,09,45,8.80
2012,01,25,09,46,14.30
2012,01,25,09,47,9.10
2012,01,25,09,48,17.90
2012,01,25,09,49,14.60
2012,01,25,09,50,9.70
2012,01,25,09,51,13.90
2012,01,25,09,52,20.40
2012,01,25,09,53,18.60
2012,01,25,09,54,14.70
2012,01,25,09,55,14.60
2012,01,25,09,56,21.60
2012,01,25,09,57,25.90
2012,01,25,09,58,26.40
2012,01,25,09,59,16.80
2012,01,25,10,00,18.30
2012,01,25,10,01,15.40
2012,01,25,10,02,18.70
2012,01,25,10,03,15.90
2012,01,25,10,04,16.20
2012,01,25,10,05,16.10
2012,01,25,10,06,16.10
2012,01,25,10,07,16.10
2012,01,25,10,08,15.50
2012,01,25,10,09,13.00
2012,01,25,10,10,5.80
2012,01,25,10,11,6.50
2012,01,25,10,12,5.70
2012,01,25,10,13,6.10
2012,01,25,10,14,8.70
2012,01,25,10,15,9.80
2012,01,25,10,16,7.50
2012,01,25,10,17,9.80
2012,01,25,10,18,9.50
2012,01,25,10,19,10.00
2012,01,25,10,20,11.80
2012,01,25,10,21,12.90
2012,01,25,10,22,12.60
2012,01,25,10,23,20.20
2012,01,25,10,24,20.90
2012,01,25,10,25,15.50
2012,01,25,10,26,13.70
2012,01,25,10,27,15.90
2012,01,25,10,28,21.80
2012,01,25,10,29,20.00
2012,01,25,10,30,21.30
2012,01,25,10,31,11.70
2012,01,25,10,32,15.90
2012,01,25,10,33,14.00
2012,01,25,10,34,8.60
2012,01,25,10,35,6.40
2012,01,25,10,36,9.40
2012,01,25,10,37,8.10
2012,01,25,10,38,5.80
2012,01,25,10,39,7.80
2012,01,25,10,40,8.70
2012,01,25,10,41,12.60
2012,01,25,10,42,9.00
2012,01,25,10,43,7.60
2012,01,25,10,44,9.70
2012,01,25,10,45,5.10
2012,01,25,10,46,9.40
2012,01,25,10,47,6.00
2012,01,25,10,48,6.10
2012,01,25,10,49,5.90
2012,01,25,10,50,6.20
2012,01,25,10,51,6.40
2012,01,25,10,52,3.60
2012,01,25,10,53,4.30
2012,01,25,10,54,13.10
2012,01,25,10,55,12.50
2012,01,25,10,56,7.10
2012,01,25,10,57,19.30
2012,01,25,10,58,22.50
2012,01,25,10,59,22.50
2012,01,25,11,00,22.50
2012,01,25,11,01,22.50
2012,01,25,11,02,22.50
2012,01,25,11,03,15.70
2012,01,25,11,04,9.90
2012,01,25,11,05,8.50
2012,01,25,11,06,6.70
2012,01,25,11,07,10.30
2012,01,25,11,08,6.70
2012,01,25,11,09,5.40
2012,01,25,11,10,5.80
2012,01,25,11,11,7.30
2012,01,25,11,12,10.70
2012,01,25,11,13,9.70
2012,01,25,11,14,5.50
2012,01,25,11,15,1.60
2012,01,25,11,16,2.30
2012,01,25,11,17,6.00
2012,01,25,11,18,12.00
2012,01,25,11,19,6.60
2012,01,25,11,20,3.80
2012,01,25,11,21,3.10
2012,01,25,11,22,5.80
2012,01,25,11,23,8.30
2012,01,25,11,24,5.60
2012,01,25,11,25,2.70
2012,01,25,11,26,4.90
2012,01,25,11,27,11.90
2012,01,25,11,28,7.00
2012,01,25,11,29,8.50
2012,01,25,11,30,4.60
2012,01,25,11,31,2.10
2012,01,25,11,32,6.00
2012,01,25,11,33,9.70
2012,01,25,11,34,10.30
2012,01,25,11,35,6.70
2012,01,25,11,36,6.00
2012,01,25,11,37,3.90
2012,01,25,11,38,4.30
2012,01,25,11,39,5.00
2012,01,25,11,40,8.40
2012,01,25,11,41,9.50
2012,01,25,11,42,9.70
2012,01,25,11,43,8.80
2012,01,25,11,44,6.80
2012,01,25,11,45,11.30
2012,01,25,11,46,4.30
2012,01,25,11,47,6.90
2012,01,25,11,48,9.30
2012,01,25,11,49,9.80
2012,01,25,11,50,8.80
2012,01,25,11,51,16.40
2012,01,25,11,52,9.90
2012,01,25,11,53,6.60
2012,01,25,11,54,7.70
2012,01,25,11,55,11.30
2012,01,25,11,56,19.30
2012,01,25,11,57,10.20
2012,01,25,11,58,18.00
2012,01,25,11,59,13.00
2012,01,25,12,00,11.00
2012,01,25,12,01,18.80
2012,01,25,12,02,5.80
2012,01,25,12,03,8.90
2012,01,25,12,04,19.20
2012,01,25,12,05,18.20
2012,01,25,12,06,12.30
2012,01,25,12,07,15.20
2012,01,25,12,08,11.80
2012,01,25,12,09,14.80
2012,01,25,12,10,8.10
2012,01,25,12,11,12.00
2012,01,25,12,12,22.70
2012,01,25,12,13,23.70
2012,01,25,12,14,24.00
2012,01,25,12,15,19.70
2012,01,25,12,16,26.50
2012,01,25,12,17,14.90
2012,01,25,12,18,18.50
2012,01,25,12,19,14.10
2012,01,25,12,20,9.90
2012,01,25,12,21,14.80
2012,01,25,12,22,26.80
2012,01,25,12,23,18.30
2012,01,25,12,24,19.30
2012,01,25,12,25,13.10
2012,01,25,12,26,13.30
2012,01,25,12,27,9.50
2012,01,25,12,28,7.60
2012,01,25,12,29,10.90
2012,01,25,12,30,16.70
2012,01,25,12,31,20.20
2012,01,25,12,32,20.40
2012,01,25,12,33,12.90
2012,01,25,12,34,8.20
2012,01,25,12,35,14.90
2012,01,25,12,36,5.90
2012,01,25,12,37,7.30
2012,01,25,12,38,11.90
2012,01,25,12,39,9.10
2012,01,25,12,40,5.60
2012,01,25,12,41,13.50
2012,01,25,12,42,14.80
2012,01,25,12,43,14.20
2012,01,25,12,44,9.70
2012,01,25,12,45,8.40
2012,01,25,12,46,12.40
2012,01,25,12,47,10.90
2012,01,25,12,48,7.80
2012,01,25,12,49,3.50
2012,01,25,12,50,5.40
2012,01,25,12,51,5.30
2012,01,25,12,52,5.80
2012,01,25,12,53,1.70
2012,01,25,12,54,5.10
2012,01,25,12,55,7.80
2012,01,25,12,56,5.30
2012,01,25,12,57,4.20
2012,01,25,12,58,7.20
2012,01,25,12,59,6.00
2012,01,25,13,00,4.30
2012,01,25,13,01,3.60
2012,01,25,13,02,8.40
2012,01,25,13,03,4.70
2012,01,25,13,04,15.20
2012,01,25,13,05,6.70
2012,01,25,13,06,2.60
2012,01,25,13,07,8.20
2012,01,25,13,08,11.10
2012,01,25,13,09,7.30
2012,01,25,13,10,4.80
2012,01,25,13,11,2.80
2012,01,25,13,12,1.00
2012,01,25,13,13,2.50
2012,01,25,13,14,4.00
2012,01,25,13,15,4.80
2012,01,25,13,16,4.80
2012,01,25,13,17,4.80
2012,01,25,13,18,4.80
2012,01,25,13,19,3.10
2012,01,25,13,20,3.00
2012,01,25,13,21,7.20
2012,01,25,13,22,8.40
2012,01,25,13,23,4.80
2012,01,25,13,24,7.90
2012,01,25,13,25,8.30
2012,01,25,13,26,7.60
2012,01,25,13,27,3.60
2012,01,25,13,28,2.50
2012,01,25,13,29,4.10
2012,01,25,13,30,5.90
2012,01,25,13,31,4.70
2012,01,25,13,32,2.30
2012,01,25,13,33,0.60
2012,01,25,13,34,4.00
2012,01,25,13,35,0.20
2012,01,25,13,36,0.00
2012,01,25,13,37,1.90
2012,01,25,13,38,0.90
2012,01,25,13,39,0.30
2012,01,25,13,40,5.60
2012,01,25,13,41,5.80
2012,01,25,13,42,8.40
2012,01,25,13,43,12.40
2012,01,25,13,44,3.50
2012,01,25,13,45,4.10
2012,01,25,13,46,2.90
2012,01,25,13,47,5.60
2012,01,25,13,48,10.80
2012,01,25,13,49,13.30
2012,01,25,13,50,16.60
2012,01,25,13,51,16.00
2012,01,25,13,52,8.60
2012,01,25,13,53,6.50
2012,01,25,13,54,6.80
2012,01,25,13,55,8.20
2012,01,25,13,56,9.00
2012,01,25,13,57,11.70
2012,01,25,13,58,14.80
2012,01,25,13,59,13.00
2012,01,25,14,00,15.30
2012,01,25,14,01,18.20
2012,01,25,14,02,16.30
2012,01,25,14,03,13.70
2012,01,25,14,04,10.70
2012,01,25,14,05,7.80
2012,01,25,14,06,11.90
2012,01,25,14,07,13.70
2012,01,25,14,08,17.10
2012,01,25,14,09,17.90
2012,01,25,14,10,11.40
2012,01,25,14,11,15.90
2012,01,25,14,12,14.30
2012,01,25,14,13,17.90
2012,01,25,14,14,10.70
2012,01,25,14,15,20.40
2012,01,25,14,16,20.00
2012,01,25,14,17,25.80
2012,01,25,14,18,31.10
2012,01,25,14,19,18.50
2012,01,25,14,20,20.30
2012,01,25,14,21,21.90
2012,01,25,14,22,17.20
2012,01,25,14,23,19.80
2012,01,25,14,24,18.60
2012,01,25,14,25,9.20
2012,01,25,14,26,12.40
2012,01,25,14,27,10.90
2012,01,25,14,28,16.30
2012,01,25,14,29,18.60
2012,01,25,14,30,17.20
2012,01,25,14,31,22.60
2012,01,25,14,32,20.10
2012,01,25,14,33,13.80
2012,01,25,14,34,16.70
2012,01,25,14,35,11.50
2012,01,25,14,36,7.60
2012,01,25,14,37,15.50
2012,01,25,14,38,12.90
2012,01,25,14,39,7.10
2012,01,25,14,40,8.30
2012,01,25,14,41,17.20
2012,01,25,14,42,16.10
2012,01,25,14,43,16.90
2012,01,25,14,44,7.70
2012,01,25,14,45,15.70
2012,01,25,14,46,19.40
2012,01,25,14,47,11.00
2012,01,25,14,48,8.70
2012,01,25,14,49,7.50
2012,01,25,14,50,14.80
2012,01,25,14,51,15.30
2012,01,25,14,52,11.60
2012,01,25,14,53,12.50
2012,01,25,14,54,17.50
2012,01,25,14,55,10.60
2012,01,25,14,56,8.70
2012,01,25,14,57,15.50
2012,01,25,14,58,20.80
2012,01,25,14,59,12.20
2012,01,25,15,00,9.70
2012,01,25,15,01,6.40
2012,01,25,15,02,8.30
2012,01,25,15,03,14.20
2012,01,25,15,04,9.30
2012,01,25,15,05,21.30
2012,01,25,15,06,13.40
2012,01,25,15,07,12.50
2012,01,25,15,08,25.00
2012,01,25,15,09,21.90
2012,01,25,15,10,20.60
2012,01,25,15,11,14.00
2012,01,25,15,12,13.10
2012,01,25,15,13,7.00
2012,01,25,15,14,18.30
2012,01,25,15,15,12.80
2012,01,25,15,16,9.40
2012,01,25,15,17,15.80
2012,01,25,15,18,13.90
2012,01,25,15,19,13.00
2012,01,25,15,20,10.00
2012,01,25,15,21,17.00
2012,01,25,15,22,12.50
2012,01,25,15,23,12.50
2012,01,25,15,24,13.10
2012,01,25,15,25,8.50
2012,01,25,15,26,16.30
2012,01,25,15,27,19.10
2012,01,25,15,28,16.30
2012,01,25,15,29,10.90
2012,01,25,15,30,8.80
2012,01,25,15,31,5.80
2012,01,25,15,32,12.30
2012,01,25,15,33,15.30
2012,01,25,15,34,17.20
2012,01,25,15,35,9.70
2012,01,25,15,36,15.00
2012,01,25,15,37,18.00
2012,01,25,15,38,21.60
2012,01,25,15,39,23.60
2012,01,25,15,40,21.40
2012,01,25,15,41,20.80
2012,01,25,15,42,13.40
2012,01,25,15,43,11.00
2012,01,25,15,44,9.90
2012,01,25,15,45,14.70
2012,01,25,15,46,20.20
2012,01,25,15,47,13.90
2012,01,25,15,48,10.50
2012,01,25,15,49,13.30
2012,01,25,15,50,16.90
2012,01,25,15,51,15.20
2012,01,25,15,52,12.80
2012,01,25,15,53,16.40
2012,01,25,15,54,12.20
2012,01,25,15,55,5.30
2012,01,25,15,56,6.80
2012,01,25,15,57,9.10
2012,01,25,15,58,11.20
2012,01,25,15,59,10.00
2012,01,25,16,00,7.90
2012,01,25,16,01,5.10
2012,01,25,16,02,4.70
2012,01,25,16,03,4.10
2012,01,25,16,04,14.40
2012,01,25,16,05,13.90
2012,01,25,16,06,7.90
2012,01,25,16,07,10.80
2012,01,25,16,08,15.90
2012,01,25,16,09,16.00
2012,01,25,16,10,9.50
2012,01,25,16,11,6.60
2012,01,25,16,12,7.30
2012,01,25,16,13,8.90
2012,01,25,16,14,8.10
2012,01,25,16,15,7.90
2012,01,25,16,16,10.80
2012,01,25,16,17,9.20
2012,01,25,16,18,5.60
2012,01,25,16,19,3.80
2012,01,25,16,20,5.40
2012,01,25,16,21,7.30
2012,01,25,16,22,10.80
2012,01,25,16,23,10.40
2012,01,25,16,24,9.60
2012,01,25,16,25,7.90
2012,01,25,16,26,8.70
2012,01,25,16,27,6.10
2012,01,25,16,28,9.30
2012,01,25,16,29,4.50
2012,01,25,16,30,8.70
2012,01,25,16,31,6.60
2012,01,25,16,32,4.00
2012,01,25,16,33,12.60
2012,01,25,16,34,7.00
2012,01,25,16,35,3.90
2012,01,25,16,36,5.60
2012,01,25,16,37,7.80
2012,01,25,16,38,6.80
2012,01,25,16,39,12.00
2012,01,25,16,40,8.00
2012,01,25,16,41,14.70
2012,01,25,16,42,8.30
2012,01,25,16,43,5.20
2012,01,25,16,44,7.80
2012,01,25,16,45,6.10
2012,01,25,16,46,1.90
2012,01,25,16,47,1.60
2012,01,25,16,48,1.60
2012,01,25,16,49,1.60
2012,01,25,16,50,1.60
2012,01,25,16,51,1.60
2012,01,25,16,52,3.40
2012,01,25,16,53,4.80
2012,01,25,16,54,4.30
2012,01,25,16,55,3.50
2012,01,25,16,56,2.30
2012,01,25,16,57,0.60
2012,01,25,16,58,0.80
2012,01,25,16,59,4.10
2012,01,25,17,00,6.40
2012,01,25,17,01,11.50
2012,01,25,17,02,10.30
2012,01,25,17,03,7.00
2012,01,25,17,04,7.60
2012,01,25,17,05,8.50
2012,01,25,17,06,10.00
2012,01,25,17,07,10.30
2012,01,25,17,08,4.70
2012,01,25,17,09,6.10
2012,01,25,17,10,7.60
2012,01,25,17,11,6.50
2012,01,25,17,12,11.30
2012,01,25,17,13,6.20
2012,01,25,17,14,8.80
2012,01,25,17,15,9.20
2012,01,25,17,16,8.70
2012,01,25,17,17,7.50
2012,01,25,17,18,6.50
2012,01,25,17,19,5.80
2012,01,25,17,20,5.60
2012,01,25,17,21,2.20
2012,01,25,17,22,1.20
2012,01,25,17,23,1.40
2012,01,25,17,24,3.30
2012,01,25,17,25,0.80
2012,01,25,17,26,1.00
2012,01,25,17,27,4.90
2012,01,25,17,28,2.60
2012,01,25,17,29,4.50
2012,01,25,17,30,4.60
2012,01,25,17,31,9.40
2012,01,25,17,32,7.50
2012,01,25,17,33,5.00
2012,01,25,17,34,1.80
2012,01,25,17,35,2.30
2012,01,25,17,36,4.30
2012,01,25,17,37,7.60
2012,01,25,17,38,2.20
2012,01,25,17,39,6.60
2012,01,25,17,40,5.20
2012,01,25,17,41,5.40
2012,01,25,17,42,6.20
2012,01,25,17,43,4.80
2012,01,25,17,44,4.50
2012,01,25,17,45,5.10
2012,01,25,17,46,5.20